Hourly Weather Roundup
Issued by NWS Central Illinois

Home | Current Version | Previous Version | Text Only | Print | Product List | Glossary On
Versions: 1 2 3 4 5 6 7 8 9 10 11 12 13 14 15 16 17 18 19 20 21 22 23 24 25 26 27 28 29 30 31 32 33 34 35 36 37 38 39 40 41 42 43 44 45 46 47 48 49 50
000
NZUS43 KILX 020110
HWRILX

AREA WEATHER ROUNDUP
NATIONAL WEATHER SERVICE, LINCOLN IL
700 PM CST SUN MAR 01 2015


CITY           SKY/WX    TMP DP  RH WIND       PRES   REMARKS
BLOOMINGTON    CLOUDY    23  19  85 W8        30.35R WCI  14
CHAMPAIGN      MOCLDY    18  15  88 W5        30.34S WCI  11
DECATUR        MOCLDY    24  19  81 NW6       30.36R WCI  17
FLORA          MOCLDY    29  25  86 W7        30.38R WCI  22
GALESBURG      CLEAR     20  16  84 W6        30.37R WCI  12
JACKSONVILLE   MOCLDY    25  19  77 NW6       30.39R WCI  18
LACON          CLEAR     21  14  73 W7        30.36R WCI  13
LAWRENCEVILLE  CLOUDY    32  28  85 NW10      30.36R WCI  24
LITCHFIELD     PTCLDY    25  21  85 NW5       30.38R WCI  19
$$


CITY           SKY/WX    TMP DP  RH WIND       PRES   REMARKS
LINCOLN        MOCLDY    25  19  78 W6        30.40R WCI  18
MACOMB         PTCLDY    19  15  85 W6        30.41R WCI  11
MATTOON        CLOUDY    24  20  84 NW5       30.34S WCI  18
MT CARMEL AP   CLOUDY    34  30  86 NW9       30.36R WCI  26
OLNEY-NOBLE AP CLOUDY    30  27  86 NW7       30.37R WCI  23
PARIS          CLOUDY    24  22  91 W3        30.36S
PEORIA         FAIR      22  14  71 SW3       30.38R
PONTIAC        PTCLDY    17  12  82 W9        30.35R WCI   6
RANTOUL        CLOUDY    22  19  87 W6        30.34R WCI  15
ROBINSON       MOCLDY    29  26  88 NW6       30.37R WCI  23
SPRINGFIELD    CLOUDY    26  20  77 NW6       30.38R WCI  19
TAYLORVILLE    MOCLDY    25  19  80 W5        30.38R WCI  19
$$

...REGIONAL REPORTS...


CITY           SKY/WX    TMP DP  RH WIND       PRES   REMARKS
CHICAGO O`HARE CLEAR     21  13  71 W9        30.28R WCI  11
KANKAKEE       MOCLDY    16  13  90 W8        30.34R WCI   5
MOLINE         CLEAR     22  14  71 W9        30.35R WCI  12
MOUNT VERNON   CLOUDY    30  25  80 W3        30.39R
PITTSFIELD     PTCLDY    27  20  74 NW3       30.40R
QUINCY         MOCLDY    23  16  74 CALM      30.39R
ROCKFORD       PTCLDY    22  14  71 W10       30.30R WCI  11
$$


CITY           SKY/WX    TMP DP  RH WIND       PRES   REMARKS
BURLINGTON     PTCLDY    21  16  81 W5        30.38R WCI  15
CEDAR RAPIDS   CLEAR     17  11  77 W9        30.36R WCI   6
DES MOINES     PTCLDY    29  14  53 N6        30.40R WCI  23
KIRKSVILLE     CLOUDY    26  19  74 SW3       30.39R
OTTUMWA        CLEAR     26  19  74 NW10      30.38R WCI  16
ST LOUIS       MOCLDY    30  22  72 NW6       30.40R WCI  24
$$


CITY           SKY/WX    TMP DP  RH WIND       PRES   REMARKS
TERRE HAUTE    MOCLDY    26  21  81 NW7       30.35R WCI  18
EVANSVILLE     CLOUDY    34  30  85 NW6       30.36R FOG     WCI  29
INDIANAPOLIS   CLOUDY    27  23  85 NW10      30.31R WCI  17
LAFAYETTE      PTCLDY    20  17  88 W8        30.34R WCI  10
MADISON        CLEAR     24  10  55 W9        30.24R WCI  14
MILWAUKEE      PTCLDY    24  13  62 SW12      30.22S WCI  13
$$




USA.gov is the U.S. government's official web portal to all federal, state and local government web resources and services.